When you browse on this site, cookies collect data to enhance your experience and personalize the content and advertising you see.
Visit our Privacy Policy to learn more. By continuing to use the site, you agree to this use of cookies and data.
  • In Lithuania
  • List of Countries
  • For 7 days
  • Water Temperature
  • Satellite Maps
  • Weather Map
  • Weather Widgets
  • user-avatar
    Login

    Hourly Weather Krestischi

    Today, 21 May, Tuesday

    Time Temperature Precipitation Wind Pressure Humidity
    00:00 +14°C° 0 mm 2 mps 744 mmHg 78%
    01:00 +14°C° 0 mm 1 mps 744 mmHg 80%
    02:00 +13°C° 0 mm 1 mps 744 mmHg 82%
    03:00 +13°C° 0 mm 1 mps 744 mmHg 84%
    04:00 +13°C° 0 mm 1 mps 744 mmHg 83%
    05:00 +14°C° 0 mm 1 mps 744 mmHg 83%
    06:00 +14°C° 0 mm 1 mps 744 mmHg 83%
    07:00 +16°C° 0 mm 1 mps 744 mmHg 78%
    08:00 +18°C° 0 mm 1 mps 744 mmHg 73%
    09:00 +20°C° 0 mm 1 mps 744 mmHg 68%
    10:00 +21°C° 0.3 mm 1 mps 744 mmHg 64%
    11:00 +22°C° 0.3 mm 1 mps 744 mmHg 60%
    12:00 +23°C° 0.3 mm 1 mps 744 mmHg 56%
    13:00 +23°C° 0.2 mm 1 mps 744 mmHg 54%
    14:00 +24°C° 0.2 mm 2 mps 743 mmHg 53%
    15:00 +24°C° 0.2 mm 2 mps 743 mmHg 52%
    16:00 +23°C° 0.6 mm 2 mps 743 mmHg 57%
    17:00 +23°C° 0.6 mm 2 mps 742 mmHg 62%
    18:00 +21°C° 0.6 mm 2 mps 742 mmHg 67%
    19:00 +20°C° 0.3 mm 2 mps 742 mmHg 71%
    20:00 +18°C° 0.3 mm 2 mps 742 mmHg 76%
    21:00 +16°C° 0.3 mm 2 mps 742 mmHg 80%
    22:00 +16°C° 0 mm 3 mps 742 mmHg 82%
    23:00 +14°C° 0 mm 3 mps 741 mmHg 84%

    Tomorrow, 22 May, Wednesday

    Time Temperature Precipitation Wind Pressure Humidity
    00:00 +13°C° 0 mm 3 mps 741 mmHg 85%
    01:00 +13°C° 0 mm 3 mps 741 mmHg 86%
    02:00 +12°C° 0 mm 3 mps 741 mmHg 86%
    03:00 +12°C° 0 mm 3 mps 741 mmHg 86%
    04:00 +12°C° 0 mm 3 mps 741 mmHg 86%
    05:00 +13°C° 0 mm 2 mps 740 mmHg 86%
    06:00 +14°C° 0 mm 2 mps 740 mmHg 86%
    07:00 +15°C° 0 mm 2 mps 740 mmHg 83%
    08:00 +17°C° 0 mm 3 mps 740 mmHg 80%
    09:00 +18°C° 0 mm 3 mps 740 mmHg 77%
    10:00 +18°C° 0.4 mm 3 mps 739 mmHg 80%
    11:00 +17°C° 0.4 mm 4 mps 739 mmHg 83%
    12:00 +17°C° 0.4 mm 4 mps 739 mmHg 85%
    13:00 +17°C° 0.2 mm 5 mps 738 mmHg 81%
    14:00 +19°C° 0.2 mm 5 mps 738 mmHg 78%
    15:00 +21°C° 0.2 mm 6 mps 737 mmHg 74%
    16:00 +21°C° 0.3 mm 5 mps 737 mmHg 74%
    17:00 +21°C° 0.3 mm 4 mps 737 mmHg 74%
    18:00 +21°C° 0.3 mm 4 mps 736 mmHg 74%
    19:00 +19°C° 0.1 mm 4 mps 736 mmHg 80%
    20:00 +18°C° 0.1 mm 3 mps 736 mmHg 85%
    21:00 +16°C° 0.1 mm 3 mps 736 mmHg 90%
    22:00 +16°C° 1.6 mm 3 mps 736 mmHg 92%
    23:00 +16°C° 1.6 mm 3 mps 735 mmHg 93%

    Day after tomorrow, 23 May, Thursday

    Time Temperature Precipitation Wind Pressure Humidity
    00:00 +14°C° 1.6 mm 3 mps 735 mmHg 94%
    01:00 +14°C° 0.4 mm 3 mps 735 mmHg 94%
    02:00 +14°C° 0.4 mm 3 mps 735 mmHg 94%
    03:00 +13°C° 0.4 mm 3 mps 735 mmHg 94%
    04:00 +14°C° 0 mm 3 mps 735 mmHg 94%
    05:00 +14°C° 0 mm 3 mps 734 mmHg 94%
    06:00 +15°C° 0 mm 2 mps 734 mmHg 95%
    07:00 +17°C° 0.3 mm 3 mps 734 mmHg 89%
    08:00 +18°C° 0.3 mm 3 mps 734 mmHg 84%
    09:00 +20°C° 0.3 mm 3 mps 734 mmHg 79%
    10:00 +21°C° 0.4 mm 4 mps 734 mmHg 74%
    11:00 +22°C° 0.4 mm 4 mps 734 mmHg 69%
    12:00 +23°C° 0.4 mm 4 mps 734 mmHg 65%
    13:00 +23°C° 0.4 mm 4 mps 734 mmHg 66%
    14:00 +23°C° 0.4 mm 5 mps 734 mmHg 66%
    15:00 +23°C° 0.4 mm 5 mps 734 mmHg 67%
    16:00 +22°C° 0.3 mm 4 mps 734 mmHg 70%
    17:00 +22°C° 0.3 mm 4 mps 734 mmHg 74%
    18:00 +21°C° 0.3 mm 3 mps 734 mmHg 77%
    19:00 +20°C° 0.2 mm 3 mps 734 mmHg 82%
    20:00 +18°C° 0.2 mm 3 mps 735 mmHg 87%
    21:00 +17°C° 0.2 mm 3 mps 735 mmHg 92%
    22:00 +15°C° 0 mm 4 mps 736 mmHg 91%
    23:00 +14°C° 0 mm 4 mps 736 mmHg 89%

    24 May, Friday

    Time Temperature Precipitation Wind Pressure Humidity
    00:00 +13°C° 0 mm 4 mps 736 mmHg 88%
    01:00 +12°C° 0 mm 4 mps 736 mmHg 88%
    02:00 +11°C° 0 mm 3 mps 737 mmHg 88%
    03:00 +10°C° 0 mm 2 mps 737 mmHg 88%
    04:00 +10°C° 0 mm 3 mps 737 mmHg 88%
    05:00 +10°C° 0 mm 3 mps 738 mmHg 88%
    06:00 +11°C° 0 mm 4 mps 738 mmHg 88%
    07:00 +12°C° 0 mm 3 mps 738 mmHg 84%
    08:00 +14°C° 0 mm 3 mps 738 mmHg 80%
    09:00 +16°C° 0 mm 3 mps 738 mmHg 77%
    10:00 +17°C° 0 mm 3 mps 738 mmHg 72%
    11:00 +18°C° 0 mm 3 mps 738 mmHg 68%
    12:00 +19°C° 0 mm 3 mps 738 mmHg 63%
    13:00 +20°C° 0 mm 3 mps 738 mmHg 62%
    14:00 +20°C° 0 mm 4 mps 738 mmHg 61%
    15:00 +21°C° 0 mm 4 mps 738 mmHg 60%
    16:00 +21°C° 0 mm 4 mps 738 mmHg 64%
    17:00 +21°C° 0 mm 4 mps 737 mmHg 67%
    18:00 +20°C° 0 mm 3 mps 737 mmHg 70%
    19:00 +19°C° 0 mm 3 mps 737 mmHg 74%
    20:00 +18°C° 0 mm 3 mps 737 mmHg 78%
    21:00 +16°C° 0 mm 3 mps 737 mmHg 82%
    22:00 +15°C° 0 mm 4 mps 736 mmHg 80%
    23:00 +15°C° 0 mm 4 mps 736 mmHg 78%

    25 May, Saturday

    Time Temperature Precipitation Wind Pressure Humidity
    00:00 +14°C° 0 mm 4 mps 736 mmHg 76%
    01:00 +14°C° 0.5 mm 4 mps 736 mmHg 80%
    02:00 +13°C° 0.5 mm 5 mps 736 mmHg 83%
    03:00 +12°C° 0.5 mm 5 mps 735 mmHg 87%
    04:00 +12°C° 1 mm 5 mps 735 mmHg 88%
    05:00 +12°C° 1 mm 4 mps 735 mmHg 89%
    06:00 +12°C° 1 mm 4 mps 735 mmHg 90%
    07:00 +14°C° 0.1 mm 5 mps 734 mmHg 89%
    08:00 +15°C° 0.1 mm 5 mps 734 mmHg 88%
    09:00 +17°C° 0.1 mm 5 mps 734 mmHg 87%
    10:00 +19°C° 1 mm 5 mps 734 mmHg 80%
    11:00 +21°C° 1 mm 5 mps 733 mmHg 74%
    12:00 +22°C° 1 mm 5 mps 733 mmHg 68%
    13:00 +22°C° 1.2 mm 4 mps 733 mmHg 69%
    14:00 +22°C° 1.2 mm 4 mps 733 mmHg 71%
    15:00 +22°C° 1.2 mm 4 mps 732 mmHg 73%
    16:00 +22°C° 0.4 mm 4 mps 732 mmHg 75%
    17:00 +22°C° 0.4 mm 4 mps 732 mmHg 77%
    18:00 +21°C° 0.4 mm 3 mps 731 mmHg 80%
    19:00 +20°C° 0.9 mm 3 mps 731 mmHg 82%
    20:00 +19°C° 0.9 mm 3 mps 731 mmHg 84%
    21:00 +17°C° 0.9 mm 4 mps 730 mmHg 86%
    22:00 +17°C° 0.3 mm 3 mps 731 mmHg 88%
    23:00 +16°C° 0.3 mm 3 mps 731 mmHg 90%

    26 May, Sunday

    Time Temperature Precipitation Wind Pressure Humidity
    00:00 +16°C° 0.3 mm 2 mps 731 mmHg 92%
    01:00 +15°C° 0.1 mm 2 mps 731 mmHg 94%
    02:00 +14°C° 0.1 mm 3 mps 731 mmHg 95%
    03:00 +14°C° 0.1 mm 3 mps 731 mmHg 97%
    04:00 +13°C° 0.2 mm 3 mps 731 mmHg 96%
    05:00 +13°C° 0.2 mm 3 mps 731 mmHg 95%
    06:00 +13°C° 0.2 mm 3 mps 731 mmHg 94%
    07:00 +14°C° 0 mm 3 mps 731 mmHg 89%
    08:00 +14°C° 0 mm 3 mps 731 mmHg 83%
    09:00 +16°C° 0 mm 3 mps 732 mmHg 78%
    10:00 +17°C° 0 mm 3 mps 732 mmHg 74%
    11:00 +18°C° 0 mm 3 mps 732 mmHg 69%
    12:00 +19°C° 0 mm 3 mps 732 mmHg 64%
    13:00 +20°C° 0 mm 3 mps 731 mmHg 63%
    14:00 +20°C° 0 mm 3 mps 731 mmHg 63%
    15:00 +21°C° 0 mm 3 mps 731 mmHg 62%
    16:00 +20°C° 0.1 mm 3 mps 731 mmHg 67%
    17:00 +19°C° 0.1 mm 3 mps 731 mmHg 72%
    18:00 +18°C° 0.1 mm 3 mps 731 mmHg 77%
    19:00 +17°C° 0 mm 3 mps 732 mmHg 80%
    20:00 +16°C° 0 mm 3 mps 732 mmHg 82%
    21:00 +13°C° 0 mm 4 mps 732 mmHg 85%
    22:00 +13°C° 0 mm 3 mps 732 mmHg 86%
    23:00 +12°C° 0 mm 3 mps 732 mmHg 86%
    Show more